Meteo orario Abaújszántó

Oggi, 6 Marzo, Sabato

Tempo Temperatura Precipitazioni Vento Pressione Umidità
00:00 -3°C° 0 mm 4 m/s 749 mm Hg 63%
01:00 -2°C° 0 mm 3 m/s 750 mm Hg 66%
02:00 -2°C° 0 mm 3 m/s 750 mm Hg 66%
03:00 -2°C° 0 mm 3 m/s 750 mm Hg 65%
04:00 -2°C° 0 mm 2 m/s 751 mm Hg 65%
05:00 -2°C° 0 mm 2 m/s 751 mm Hg 64%
06:00 -2°C° 0 mm 2 m/s 752 mm Hg 63%
07:00 -1°C° 0 mm 2 m/s 752 mm Hg 61%
08:00 0°C° 0 mm 3 m/s 753 mm Hg 55%
09:00 +1°C° 0 mm 3 m/s 753 mm Hg 48%
10:00 +1°C° 0 mm 4 m/s 753 mm Hg 41%
11:00 +2°C° 0 mm 3 m/s 753 mm Hg 40%
12:00 +3°C° 0 mm 3 m/s 753 mm Hg 39%
13:00 +3°C° 0 mm 3 m/s 753 mm Hg 38%
14:00 +4°C° 0 mm 2 m/s 753 mm Hg 39%
15:00 +4°C° 0 mm 2 m/s 753 mm Hg 40%
16:00 +5°C° 0 mm 1 m/s 753 mm Hg 42%
17:00 +4°C° 0 mm 1 m/s 753 mm Hg 46%
18:00 +3°C° 0 mm 1 m/s 753 mm Hg 51%
19:00 +2°C° 0 mm 1 m/s 753 mm Hg 55%
20:00 +1°C° 0 mm 1 m/s 753 mm Hg 58%
21:00 +1°C° 0 mm 1 m/s 753 mm Hg 61%
22:00 +1°C° 0 mm 1 m/s 753 mm Hg 64%
23:00 +1°C° 0 mm 1 m/s 753 mm Hg 65%

Domani, 7 Marzo, Domenica

Tempo Temperatura Precipitazioni Vento Pressione Umidità
00:00 +1°C° 0 mm 1 m/s 753 mm Hg 67%
01:00 0°C° 0 mm 1 m/s 753 mm Hg 69%
02:00 0°C° 0 mm 1 m/s 752 mm Hg 69%
03:00 -2°C° 0 mm 2 m/s 752 mm Hg 70%
04:00 -2°C° 0 mm 2 m/s 751 mm Hg 70%
05:00 -2°C° 0 mm 2 m/s 751 mm Hg 69%
06:00 -2°C° 0 mm 2 m/s 751 mm Hg 67%
07:00 -1°C° 0 mm 3 m/s 751 mm Hg 66%
08:00 0°C° 0 mm 3 m/s 751 mm Hg 58%
09:00 +1°C° 0 mm 4 m/s 750 mm Hg 50%
10:00 +2°C° 0 mm 5 m/s 750 mm Hg 43%
11:00 +3°C° 0 mm 5 m/s 749 mm Hg 43%
12:00 +3°C° 0 mm 5 m/s 749 mm Hg 43%
13:00 +4°C° 0 mm 6 m/s 748 mm Hg 42%
14:00 +5°C° 0 mm 5 m/s 747 mm Hg 44%
15:00 +3°C° 0 mm 5 m/s 747 mm Hg 47%
16:00 +3°C° 0 mm 5 m/s 746 mm Hg 49%
17:00 +3°C° 0 mm 4 m/s 746 mm Hg 55%
18:00 +2°C° 0 mm 3 m/s 746 mm Hg 61%
19:00 0°C° 0 mm 3 m/s 746 mm Hg 67%
20:00 0°C° 0 mm 3 m/s 745 mm Hg 69%
21:00 +1°C° 0 mm 2 m/s 745 mm Hg 71%
22:00 -1°C° 0 mm 2 m/s 745 mm Hg 72%
23:00 -1°C° 0 mm 2 m/s 745 mm Hg 73%

Dopodomani, 8 Marzo, Lunedi

Tempo Temperatura Precipitazioni Vento Pressione Umidità
00:00 +1°C° 0 mm 1 m/s 744 mm Hg 74%
01:00 +1°C° 0 mm 1 m/s 744 mm Hg 74%
02:00 0°C° 0 mm 1 m/s 744 mm Hg 75%
03:00 0°C° 0 mm 1 m/s 743 mm Hg 76%
04:00 0°C° 0 mm 1 m/s 743 mm Hg 76%
05:00 0°C° 0 mm 1 m/s 743 mm Hg 76%
06:00 0°C° 0 mm 1 m/s 743 mm Hg 75%
07:00 +1°C° 0 mm 1 m/s 743 mm Hg 75%
08:00 +2°C° 0 mm 1 m/s 743 mm Hg 69%
09:00 +3°C° 0 mm 1 m/s 743 mm Hg 64%
10:00 +4°C° 0 mm 1 m/s 743 mm Hg 58%
11:00 +5°C° 0 mm 1 m/s 743 mm Hg 56%
12:00 +6°C° 0 mm 1 m/s 743 mm Hg 53%
13:00 +6°C° 0 mm 1 m/s 744 mm Hg 51%
14:00 +6°C° 0 mm 1 m/s 743 mm Hg 53%
15:00 +6°C° 0 mm 1 m/s 743 mm Hg 54%
16:00 +6°C° 0 mm 1 m/s 743 mm Hg 56%
17:00 +4°C° 0.1 mm 2 m/s 744 mm Hg 63%
18:00 +1°C° 0.1 mm 3 m/s 744 mm Hg 70%
19:00 -1°C° 0.1 mm 4 m/s 745 mm Hg 78%
20:00 -1°C° 0 mm 4 m/s 745 mm Hg 74%
21:00 -1°C° 0 mm 3 m/s 745 mm Hg 71%
22:00 -1°C° 0 mm 3 m/s 746 mm Hg 68%
23:00 -1°C° 0 mm 3 m/s 746 mm Hg 68%

9 Marzo, Martedi

Tempo Temperatura Precipitazioni Vento Pressione Umidità
00:00 -2°C° 0 mm 3 m/s 746 mm Hg 69%
01:00 -2°C° 0 mm 2 m/s 746 mm Hg 70%
02:00 -2°C° 0 mm 2 m/s 746 mm Hg 71%
03:00 -2°C° 0 mm 2 m/s 746 mm Hg 71%
04:00 -2°C° 0 mm 2 m/s 746 mm Hg 72%
05:00 -2°C° 0 mm 2 m/s 746 mm Hg 71%
06:00 -2°C° 0 mm 2 m/s 746 mm Hg 70%
07:00 -2°C° 0 mm 2 m/s 746 mm Hg 69%
08:00 -1°C° 0 mm 2 m/s 746 mm Hg 62%
09:00 0°C° 0 mm 3 m/s 746 mm Hg 56%
10:00 +1°C° 0 mm 3 m/s 747 mm Hg 50%
11:00 +1°C° 0 mm 3 m/s 746 mm Hg 47%
12:00 +3°C° 0 mm 2 m/s 746 mm Hg 44%
13:00 +4°C° 0 mm 2 m/s 746 mm Hg 41%
14:00 +4°C° 0 mm 2 m/s 746 mm Hg 42%
15:00 +3°C° 0 mm 2 m/s 745 mm Hg 43%
16:00 +3°C° 0 mm 2 m/s 745 mm Hg 43%
17:00 +2°C° 0 mm 2 m/s 745 mm Hg 49%
18:00 +1°C° 0 mm 2 m/s 746 mm Hg 54%
19:00 -1°C° 0 mm 2 m/s 746 mm Hg 60%
20:00 +1°C° 0 mm 1 m/s 746 mm Hg 61%
21:00 +1°C° 0 mm 1 m/s 746 mm Hg 62%
22:00 +1°C° 0 mm 1 m/s 746 mm Hg 64%
23:00 +1°C° 0 mm 1 m/s 746 mm Hg 64%

10 Marzo, Mercoledi

Tempo Temperatura Precipitazioni Vento Pressione Umidità
00:00 +1°C° 0 mm 1 m/s 746 mm Hg 63%
01:00 +1°C° 0 mm 1 m/s 746 mm Hg 63%
02:00 0°C° 0 mm 0 m/s 746 mm Hg 63%
03:00 0°C° 0 mm 0 m/s 746 mm Hg 64%
04:00 -1°C° 0 mm 0 m/s 746 mm Hg 64%
05:00 0°C° 0 mm 0 m/s 746 mm Hg 63%
06:00 0°C° 0 mm 0 m/s 746 mm Hg 63%
07:00 0°C° 0 mm 0 m/s 747 mm Hg 62%
08:00 +1°C° 0 mm 0 m/s 747 mm Hg 58%
09:00 +2°C° 0 mm 0 m/s 747 mm Hg 55%
10:00 +3°C° 0 mm 0 m/s 747 mm Hg 51%
11:00 +4°C° 0 mm 0 m/s 747 mm Hg 49%
12:00 +6°C° 0 mm 1 m/s 747 mm Hg 48%
13:00 +6°C° 0 mm 1 m/s 747 mm Hg 47%
14:00 +6°C° 0 mm 1 m/s 747 mm Hg 48%
15:00 +6°C° 0 mm 1 m/s 747 mm Hg 49%
16:00 +6°C° 0 mm 1 m/s 746 mm Hg 50%
17:00 +5°C° 0 mm 1 m/s 747 mm Hg 55%
18:00 +4°C° 0 mm 1 m/s 747 mm Hg 61%
19:00 +3°C° 0 mm 1 m/s 747 mm Hg 66%
20:00 +3°C° 0 mm 1 m/s 747 mm Hg 67%
21:00 +3°C° 0 mm 1 m/s 748 mm Hg 69%
22:00 +3°C° 0 mm 1 m/s 748 mm Hg 70%
23:00 +2°C° 0 mm 1 m/s 748 mm Hg 74%

11 Marzo, Giovedi

Tempo Temperatura Precipitazioni Vento Pressione Umidità
00:00 +2°C° 0 mm 1 m/s 747 mm Hg 77%
01:00 +2°C° 0 mm 1 m/s 747 mm Hg 80%
02:00 -1°C° 0 mm 2 m/s 747 mm Hg 84%
03:00 -1°C° 0 mm 2 m/s 747 mm Hg 87%
04:00 -1°C° 0 mm 2 m/s 746 mm Hg 90%
05:00 +1°C° 0 mm 2 m/s 746 mm Hg 88%
06:00 0°C° 0 mm 3 m/s 746 mm Hg 87%
07:00 0°C° 0 mm 3 m/s 746 mm Hg 85%
08:00 +1°C° 0 mm 4 m/s 746 mm Hg 79%
09:00 +2°C° 0 mm 5 m/s 746 mm Hg 74%
10:00 +3°C° 0 mm 6 m/s 746 mm Hg 68%
11:00 +4°C° 0 mm 6 m/s 745 mm Hg 65%
12:00 +5°C° 0 mm 7 m/s 745 mm Hg 62%
13:00 +6°C° 0 mm 7 m/s 744 mm Hg 58%
14:00 +7°C° 0 mm 6 m/s 744 mm Hg 59%
15:00 +7°C° 0 mm 6 m/s 743 mm Hg 59%
16:00 +7°C° 0 mm 5 m/s 743 mm Hg 59%
17:00 +7°C° 0 mm 5 m/s 743 mm Hg 62%
18:00 +6°C° 0 mm 4 m/s 743 mm Hg 64%
19:00 +6°C° 0 mm 4 m/s 743 mm Hg 67%
20:00 +5°C° 0 mm 4 m/s 742 mm Hg 68%
21:00 +5°C° 0 mm 4 m/s 742 mm Hg 68%
22:00 +5°C° 0 mm 4 m/s 742 mm Hg 69%
23:00 +5°C° 0 mm 4 m/s 742 mm Hg 71%
Mostrare altro

Abbiamo bisogno del tuo consenso

Meteoprog e i nostri fornitori di servizi possono memorizzare e accedere a dati personali come cookie, identificatori di dispositivi o altre tecnologie simili sul tuo dispositivo e possono elaborare tali dati per personalizzare i contenuti e gli annunci, nonché fornire funzionalità dei social media e analizzarne il traffico.

  • Archiviare e/o accedere alle informazioni sul tuo dispositivo

    Cookie, identificatori di dispositivi o altre informazioni possono essere memorizzati o resi accessibili sul tuo dispositivo per le finalità sopra indicate.

  • Annunci e contenuti personalizzati, misurazione di annunci e contenuti, approfondimenti sul pubblico e sviluppo di prodotti

    Gli annunci e i contenuti possono essere personalizzati in base a un profilo. È possibile aggiungere più dati per personalizzare meglio annunci e contenuti. È possibile misurare il rendimento degli annunci e dei contenuti. È possibile ricavare informazioni sul pubblico che ha visto gli annunci e i contenuti. Tali dati possono essere utilizzati per sviluppare o migliorare l'esperienza, i sistemi e il software dell'utente.

Cliccando su “Accetto”, acconsenti all'uso di cookie, identificatori di dispositivo, web beacon o altre tecnologie simili. Puoi modificare le impostazioni nel browser del tuo dispositivo.

Per determinati scopi, è possibile fare affidamento su interessi legali, piuttosto che sul consenso. Puoi approfondire questo argomento consultando la nostra Informativa sulla privacy e sui cookie.